Wetbulb
61.56 60.35 59.09 58.52 58.10 57.16 56.66 56.57 55.17 54.38 54.25 54.00 54.39 53.59 53.41 53.41 52.66 52.03 52.41 52.89 52.40 51.46 51.50 51.39 52.00 52.83 53.22 53.93 53.55 53.07 52.46 51.87 50.35 51.23 52.40 52.89 51.53 52.32 54.11 54.93 56.30 55.51 55.11
57.94 57.48 56.80 55.96 55.00 53.99 52.98 52.48 52.72 51.82 52.10 52.09 52.82 52.44 53.13 52.76 50.74 49.75 49.80 50.39 49.84 49.29 49.93 50.10 50.72 53.22 51.47 51.70 51.45 51.25 51.08 50.88 51.32 49.10 50.78 51.45 51.59 53.18 53.64 53.35 54.76 56.01 54.85
55.96 55.26 54.56 53.00 52.17 51.52 51.17 50.82 50.93 50.83 50.73 51.17 51.33 51.66 50.17 49.10 48.13 47.91 47.71 47.51 47.68 48.26 48.69 48.88 49.80 50.24 49.49 50.23 50.91 50.82 50.66 51.20 50.93 50.21 49.86 51.48 51.85 52.11 51.86 52.80 53.17 53.86 54.24
55.29 53.63 52.27 51.79 51.52 51.75 51.57 51.56 51.94 52.04 52.02 51.96 52.26 51.71 48.32 47.37 46.65 46.49 46.16 45.72 45.67 46.79 47.97 48.96 49.79 50.68 51.41 50.72 50.39 49.59 49.81 49.07 49.59 49.30 48.94 49.22 49.95 51.06 51.65 50.87 50.95 53.18 53.32
52.80 51.56 50.36 50.29 50.91 51.19 51.45 51.44 51.12 50.58 50.83 51.03 50.70 49.88 47.62 46.25 44.87 43.61 43.63 43.24 43.47 45.10 47.53 50.48 51.63 52.11 52.96 48.39 46.58 45.55 45.48 45.37 45.93 45.99 46.02 46.36 46.42 47.05 46.82 48.54 48.38 49.64 51.08
50.23 49.61 50.27 50.46 50.47 49.65 49.49 49.32 48.67 48.42 47.69 48.51 48.74 48.51 46.15 45.60 43.82 43.85 44.54 42.16 44.00 48.29 46.35 47.59 49.41 51.44 46.84 45.29 45.31 45.58 45.06 43.47 43.41 43.82 44.14 43.94 44.73 45.78 47.03 47.04 47.50 46.87 45.17
49.64 50.53 50.41 50.00 49.35 48.65 48.27 47.44 46.14 45.42 45.42 47.28 48.18 48.65 44.83 42.96 42.66 41.99 43.69 42.86 43.24 45.53 47.14 48.47 50.05 46.98 43.87 41.34 41.72 42.83 43.53 44.50 45.33 44.90 43.62 43.86 44.23 45.77 46.23 45.61 46.07 46.16 46.11
48.59 49.12 48.91 48.25 47.77 47.19 45.92 44.98 45.99 46.60 45.05 45.27 47.12 48.28 45.17 43.36 42.03 40.96 42.00 41.86 45.27 45.69 46.50 48.77 44.44 41.12 40.52 40.14 39.59 39.85 41.33 42.55 43.89 44.97 44.46 44.59 45.60 46.39 46.31 46.09 45.39 45.21 46.15
47.59 47.25 47.58 47.06 45.56 44.85 43.77 42.22 42.27 44.54 45.42 45.62 46.85 46.39 45.38 43.62 40.57 40.06 39.95 39.87 41.94 42.07 45.89 45.59 43.23 40.10 40.04 39.74 38.87 39.02 40.06 40.43 43.43 44.39 44.09 43.56 43.07 43.31 44.23 45.20 44.23 43.41 42.57
46.78 46.83 46.57 45.73 45.00 45.15 44.68 41.82 44.09 44.86 42.53 42.03 44.51 45.59 44.12 40.99 39.69 39.42 39.88 40.02 39.64 41.46 43.66 42.25 42.45 40.49 39.27 38.94 38.66 38.63 37.53 38.68 39.72 41.73 43.71 45.81 47.21 49.25 49.04 49.55 48.97 44.82 43.87
46.75 45.94 45.31 43.90 44.88 44.27 43.35 41.63 41.44 42.27 39.86 38.86 40.93 42.59 42.88 39.56 38.21 38.82 39.37 40.00 39.96 41.42 42.42 41.33 41.40 40.22 38.98 38.67 38.88 39.16 37.88 39.48 41.65 42.74 44.07 46.22 47.80 49.57 49.62 49.21 48.91 48.12 45.18
45.90 44.80 43.25 42.16 42.40 40.42 38.07 37.80 37.65 37.84 35.99 36.58 36.60 37.63 40.54 39.60 39.25 37.87 37.75 38.31 40.94 41.41 42.12 41.19 40.50 39.12 38.64 38.55 39.31 38.12 38.37 40.52 41.44 41.88 42.80 44.54 46.80 49.56 48.47 48.49 49.05 48.91 49.24
44.51 42.54 40.88 40.26 40.11 38.57 35.22 33.88 33.82 34.57 34.47 34.66 35.02 35.58 35.68 36.88 36.49 37.06 36.76 37.42 39.77 40.31 41.90 41.77 39.74 39.17 39.21 39.59 39.45 39.21 39.44 39.48 39.95 40.08 41.02 44.43 47.72 51.37 49.18 48.49 48.78 49.19 49.78
41.41 43.13 40.92 38.41 36.21 35.75 36.41 33.04 31.28 32.32 33.00 32.51 31.54 31.27 32.38 33.00 33.12 34.31 35.71 37.21 39.88 40.35 40.25 41.05 40.33 39.93 39.32 39.34 39.50 39.91 39.80 39.77 39.66 39.79 41.76 45.12 49.55 49.51 49.26 48.76 47.61 47.66 46.69
39.61 39.93 41.30 37.94 34.83 33.59 34.38 33.52 32.90 32.91 32.29 31.49 31.56 31.43 29.96 29.52 31.64 35.14 36.19 36.32 37.68 38.94 39.09 39.03 36.45 36.34 36.00 36.16 37.34 38.57 39.42 38.95 38.39 39.75 42.05 43.99 47.79 47.91 47.30 48.51 49.64 49.63 46.15
38.83 39.31 39.48 38.80 37.30 37.03 35.96 34.40 35.90 35.47 34.80 34.43 34.59 34.06 33.78 34.45 35.60 36.02 36.77 36.12 35.98 36.21 36.15 34.39 33.24 34.33 33.93 34.28 35.07 35.88 37.74 38.50 38.21 39.97 41.84 43.40 45.93 47.75 46.62 46.51 47.10 47.32 47.18
37.78 41.11 41.09 39.05 36.84 34.60 33.63 32.75 31.67 34.69 35.99 35.41 34.56 35.06 34.73 34.65 35.14 35.14 35.43 35.44 35.03 36.00 35.23 33.79 32.83 32.97 33.38 33.23 34.21 35.15 35.32 37.27 37.88 39.35 41.04 42.84 45.94 47.46 47.43 46.01 44.63 45.11 44.35
38.14 40.96 40.97 39.15 37.23 35.32 34.30 33.43 32.91 32.26 32.79 33.43 35.45 35.14 34.99 34.64 34.91 34.96 34.92 35.40 34.32 34.58 34.52 34.49 33.73 33.17 32.42 32.57 32.19 33.31 34.30 35.10 35.24 37.23 39.45 41.26 45.30 46.14 47.80 44.46 43.10 42.87 43.08
36.87 39.16 37.60 37.34 35.81 34.39 34.82 34.27 34.02 34.35 34.93 34.42 34.68 35.93 35.05 35.03 34.93 35.36 35.34 33.97 33.45 33.59 34.32 33.55 33.67 32.79 31.31 30.91 31.05 32.19 32.44 32.43 33.05 34.81 36.97 38.48 44.28 45.96 47.25 46.53 43.62 39.84 40.38
34.97 37.56 37.01 35.95 35.58 33.97 33.73 32.92 32.57 32.33 33.00 33.22 33.39 33.65 34.50 35.78 34.92 33.23 33.18 34.15 33.57 33.64 34.44 33.43 31.95 31.33 30.40 29.98 29.78 30.71 30.50 30.23 30.48 32.24 34.22 36.70 42.74 45.54 45.78 47.36 46.08 43.16 42.38
35.12 34.16 35.84 32.96 32.61 32.66 32.59 31.96 31.65 31.38 31.15 31.58 31.62 33.93 32.77 35.74 34.86 32.92 32.32 32.67 31.52 34.42 34.34 33.01 31.60 30.60 29.87 29.04 28.89 28.74 28.70 28.82 29.16 30.38 32.88 35.14 40.94 43.71 45.02 46.13 47.61 46.19 43.82
34.98 33.92 33.50 32.24 32.10 32.05 31.20 31.61 31.15 31.04 31.28 30.87 31.40 33.57 33.08 35.28 34.99 34.45 33.67 34.05 33.62 33.67 33.34 32.26 30.79 29.84 29.47 28.43 28.05 27.71 27.16 26.73 27.79 29.14 31.28 33.78 39.78 43.09 43.39 43.96 44.77 46.25 45.21
35.00 34.68 33.63 32.94 32.97 33.10 30.72 30.49 30.39 30.61 30.82 30.76 31.13 32.33 33.62 33.79 33.88 34.20 34.50 35.29 34.35 33.91 33.79 31.39 29.49 28.19 28.48 28.64 28.41 27.83 26.61 26.38 27.22 29.66 29.83 33.30 37.65 38.61 42.39 42.60 42.80 42.76 44.05
34.93 34.38 33.25 32.45 32.62 31.22 30.69 30.12 29.97 31.11 31.15 30.85 31.12 32.01 32.15 32.52 32.26 33.57 33.98 34.62 33.99 33.39 33.29 31.70 29.42 27.67 27.18 27.25 27.44 27.72 27.88 28.08 28.95 29.38 30.36 34.98 36.14 36.14 40.79 42.14 42.02 42.04 42.15
35.27 34.60 33.81 32.27 32.18 30.91 30.43 30.53 30.42 30.26 30.76 31.31 31.03 30.87 31.01 31.95 32.16 32.43 32.93 33.81 34.03 33.21 32.43 31.50 29.07 27.81 26.97 26.61 27.07 27.27 27.78 28.42 28.50 29.51 31.85 34.02 34.04 35.15 36.49 40.95 41.76 40.99 41.21
34.25 33.81 33.03 32.10 31.58 30.44 29.75 28.78 29.39 30.37 30.10 30.48 30.25 30.03 30.70 31.33 31.50 31.66 32.28 32.20 32.24 32.25 32.00 31.11 29.80 27.87 26.71 26.65 27.45 27.87 27.63 27.68 27.76 29.19 32.09 32.75 32.26 33.01 33.96 37.91 39.88 40.07 39.46
MSLP
1009.07 1009.89 1010.47 1011.20 1011.62 1011.79 1012.29 1012.77 1013.08 1013.31 1013.63 1013.89 1013.85 1013.76 1013.71 1013.77 1014.00 1013.98 1013.94 1014.01 1013.90 1013.69 1013.48 1013.34 1012.98 1012.65 1012.29 1011.80 1011.35 1011.04 1010.86 1010.63 1009.68 1008.23 1008.34 1007.82 1007.43 1007.00 1006.42 1005.98 1005.56 1005.14 1004.63
1009.92 1010.29 1011.29 1011.91 1012.47 1012.90 1013.48 1013.84 1014.02 1014.39 1014.43 1014.42 1014.26 1014.20 1014.15 1014.52 1014.88 1015.03 1015.05 1014.77 1014.53 1014.31 1013.97 1013.47 1013.21 1012.76 1012.38 1011.71 1011.31 1010.98 1010.54 1010.11 1009.57 1008.04 1007.78 1007.39 1006.95 1006.36 1005.79 1005.41 1004.89 1004.29 1003.86
1010.76 1011.21 1012.00 1012.98 1013.64 1014.06 1014.40 1014.72 1014.79 1014.80 1014.77 1014.61 1014.45 1014.52 1015.09 1015.40 1015.54 1015.62 1015.48 1015.25 1015.11 1014.79 1014.33 1013.92 1013.36 1012.77 1012.23 1011.73 1011.34 1010.93 1010.51 1010.08 1009.58 1008.78 1007.57 1007.21 1006.42 1005.72 1004.89 1004.36 1003.96 1003.43 1003.01
1011.28 1012.32 1013.22 1014.05 1014.45 1014.75 1015.00 1015.16 1015.29 1015.43 1015.28 1015.28 1015.31 1015.44 1015.80 1015.96 1016.14 1016.20 1016.02 1015.76 1015.40 1014.98 1014.52 1013.98 1013.34 1012.73 1012.18 1011.83 1011.51 1011.12 1010.75 1010.19 1009.47 1008.77 1007.75 1006.97 1006.32 1005.31 1004.84 1003.96 1003.16 1002.77 1002.33
1012.58 1013.51 1014.23 1014.60 1014.92 1015.36 1015.75 1015.95 1016.07 1016.03 1016.09 1016.04 1015.86 1016.06 1016.30 1016.49 1017.06 1016.97 1016.58 1016.12 1015.68 1015.02 1014.48 1013.88 1013.30 1012.74 1012.35 1012.36 1012.06 1011.48 1010.90 1010.17 1009.42 1008.75 1007.73 1006.81 1005.70 1005.17 1004.64 1003.96 1003.49 1002.92 1002.43
1013.59 1014.28 1014.87 1015.35 1015.72 1016.21 1016.40 1016.59 1016.69 1016.72 1016.69 1016.64 1016.60 1016.81 1017.09 1017.45 1017.70 1017.32 1016.85 1016.29 1015.70 1014.91 1014.43 1013.79 1013.25 1012.69 1012.72 1012.37 1011.90 1011.25 1010.80 1010.00 1009.15 1008.48 1007.69 1006.87 1005.85 1005.22 1004.50 1003.95 1003.35 1002.84 1002.00
1014.37 1015.05 1015.54 1015.96 1016.52 1016.93 1017.12 1017.26 1017.34 1017.39 1017.28 1017.17 1017.30 1017.39 1017.86 1018.22 1018.07 1017.61 1016.91 1016.30 1015.75 1015.14 1014.54 1013.84 1013.22 1013.24 1013.11 1012.28 1011.24 1010.56 1009.77 1009.28 1008.88 1008.19 1007.34 1006.39 1005.49 1004.74 1004.27 1003.61 1003.11 1002.68 1002.03
1015.37 1015.92 1016.36 1016.83 1017.37 1017.73 1017.76 1017.93 1017.87 1017.93 1017.91 1017.71 1017.78 1017.90 1018.35 1018.61 1018.34 1017.88 1017.19 1016.59 1015.90 1015.31 1014.63 1014.03 1014.02 1013.75 1013.31 1012.57 1011.51 1010.41 1009.68 1009.00 1008.32 1007.62 1007.00 1006.05 1005.22 1004.30 1003.68 1003.23 1002.76 1002.25 1001.64
1016.49 1016.95 1017.40 1017.81 1018.25 1018.34 1018.49 1018.82 1018.65 1018.52 1018.43 1018.35 1018.31 1018.61 1018.73 1018.85 1018.80 1018.26 1017.72 1016.87 1016.26 1015.60 1014.84 1014.49 1014.26 1014.03 1013.64 1012.92 1011.94 1010.84 1009.88 1008.87 1007.93 1007.05 1006.13 1005.24 1004.24 1003.29 1002.63 1002.53 1002.09 1001.65 1001.08
1017.68 1017.92 1018.33 1018.56 1018.64 1018.90 1019.08 1019.24 1019.18 1019.16 1019.26 1019.20 1019.05 1019.08 1019.31 1019.37 1019.15 1018.53 1018.08 1017.16 1016.36 1015.60 1015.01 1014.80 1014.55 1014.46 1013.81 1012.98 1012.31 1011.42 1010.34 1009.02 1007.99 1006.49 1005.11 1004.11 1003.52 1002.81 1002.06 1001.71 1001.18 1000.90 1000.76
1018.40 1018.78 1018.96 1019.16 1019.39 1019.58 1019.83 1020.03 1020.02 1019.92 1020.10 1020.00 1019.78 1019.66 1019.62 1019.65 1019.32 1018.91 1018.50 1017.53 1016.85 1016.20 1015.73 1015.28 1015.00 1014.59 1013.86 1013.12 1012.48 1011.69 1010.75 1009.35 1007.88 1006.86 1005.67 1004.64 1003.56 1002.66 1002.08 1001.68 1001.20 1000.63 1000.42
1019.26 1019.45 1019.63 1019.99 1020.37 1020.70 1020.92 1021.09 1021.01 1020.87 1020.95 1020.81 1020.68 1020.58 1020.28 1020.07 1019.63 1019.23 1018.60 1017.88 1017.21 1016.71 1016.34 1015.98 1015.46 1014.74 1013.99 1013.20 1012.43 1011.56 1010.38 1009.23 1008.18 1006.99 1005.90 1004.70 1003.62 1002.49 1002.12 1001.72 1001.12 1000.79 1000.55
1019.83 1020.13 1020.46 1020.97 1021.35 1021.67 1021.90 1021.96 1021.89 1021.84 1021.74 1021.78 1021.64 1021.40 1021.08 1020.69 1020.14 1019.61 1018.96 1018.03 1017.19 1017.06 1016.73 1016.26 1015.63 1014.93 1014.12 1013.18 1012.46 1011.62 1010.62 1009.75 1008.74 1007.62 1006.62 1005.23 1003.85 1002.68 1002.18 1001.82 1001.40 1001.11 1000.82
1020.21 1020.57 1021.17 1021.76 1022.21 1022.37 1022.50 1022.96 1023.06 1022.92 1022.77 1022.71 1022.54 1022.34 1021.99 1021.50 1020.89 1020.03 1019.37 1018.29 1017.31 1017.13 1016.72 1016.33 1016.00 1015.44 1014.74 1013.89 1012.68 1011.99 1011.41 1010.76 1009.77 1008.55 1007.26 1005.87 1004.29 1003.23 1002.48 1001.90 1001.59 1001.50 1001.26
1020.70 1021.09 1021.69 1022.29 1022.85 1023.23 1023.48 1023.72 1023.81 1023.99 1023.80 1023.40 1023.18 1022.93 1022.63 1022.12 1021.35 1020.55 1019.94 1018.92 1018.09 1017.56 1017.05 1016.58 1015.88 1015.37 1014.85 1014.27 1013.61 1012.99 1012.05 1011.18 1010.23 1009.19 1007.82 1006.42 1004.90 1004.12 1003.30 1002.52 1001.94 1001.60 1001.64
1021.19 1021.39 1021.91 1022.56 1023.04 1023.41 1023.86 1024.24 1024.35 1024.24 1023.91 1023.66 1023.43 1023.10 1022.84 1022.39 1021.33 1020.34 1020.06 1019.38 1018.77 1018.11 1017.57 1017.44 1017.24 1017.10 1016.61 1016.03 1015.12 1014.13 1013.08 1012.13 1011.21 1009.98 1008.65 1007.33 1005.91 1004.72 1004.22 1003.52 1002.90 1002.48 1002.28
1021.59 1021.77 1022.31 1022.83 1023.47 1023.98 1024.32 1024.47 1024.31 1024.02 1023.80 1023.56 1023.34 1023.17 1023.01 1022.65 1021.69 1020.99 1020.53 1019.95 1019.53 1018.82 1018.31 1018.38 1018.21 1018.02 1017.65 1017.13 1016.41 1015.51 1014.47 1013.38 1012.33 1010.85 1009.56 1008.14 1006.78 1005.36 1004.59 1004.32 1003.91 1003.48 1003.33
1021.94 1021.93 1022.47 1023.10 1023.70 1024.11 1024.34 1024.52 1024.34 1024.32 1024.12 1023.58 1023.04 1022.92 1023.00 1022.88 1022.41 1021.62 1020.96 1020.30 1019.96 1019.55 1019.41 1019.09 1019.01 1018.81 1018.64 1018.16 1017.43 1016.50 1015.44 1014.19 1013.09 1011.83 1010.49 1009.20 1007.74 1006.44 1005.22 1005.29 1005.11 1004.64 1004.19
1022.35 1022.48 1022.77 1023.17 1023.72 1024.09 1024.29 1024.38 1024.43 1024.35 1024.21 1023.83 1023.60 1023.01 1022.92 1022.79 1022.59 1022.12 1021.60 1021.17 1021.06 1020.72 1020.33 1020.12 1020.03 1019.73 1019.50 1019.08 1018.43 1017.55 1016.63 1015.56 1014.50 1013.08 1011.64 1010.28 1008.79 1007.42 1006.40 1006.05 1006.00 1005.73 1005.32
1022.63 1022.90 1023.22 1023.53 1023.93 1024.14 1024.33 1024.54 1024.63 1024.55 1024.55 1024.46 1024.29 1024.00 1023.29 1022.83 1022.74 1022.65 1022.23 1022.03 1021.77 1021.57 1021.23 1020.95 1020.92 1020.68 1020.29 1019.78 1019.19 1018.35 1017.55 1016.48 1015.36 1014.25 1012.85 1011.51 1009.66 1008.63 1007.67 1006.84 1006.46 1006.40 1006.14
1023.31 1023.53 1023.74 1024.06 1024.40 1024.54 1024.73 1024.85 1024.83 1024.92 1024.94 1024.85 1024.83 1024.46 1023.95 1023.44 1023.26 1023.19 1022.91 1022.58 1022.44 1022.11 1022.10 1021.88 1021.69 1021.41 1021.08 1020.64 1020.07 1019.35 1018.55 1017.72 1016.67 1015.57 1014.22 1012.75 1010.97 1009.79 1009.03 1008.21 1007.36 1007.16 1007.13
1023.89 1024.23 1024.45 1024.76 1025.07 1025.15 1025.45 1025.28 1025.32 1025.51 1025.49 1025.40 1025.29 1024.93 1024.61 1024.26 1024.04 1023.76 1023.51 1023.21 1023.06 1022.74 1022.85 1022.73 1022.55 1022.32 1022.01 1021.57 1021.01 1020.39 1019.74 1018.77 1017.70 1016.53 1015.24 1013.94 1012.17 1010.92 1010.15 1009.50 1008.78 1008.01 1007.86
1024.41 1024.90 1025.24 1025.22 1025.35 1025.78 1025.97 1025.90 1025.98 1026.02 1026.06 1025.93 1025.71 1025.59 1025.42 1025.23 1025.02 1024.65 1024.25 1023.85 1023.72 1023.46 1023.50 1023.45 1023.34 1023.17 1022.88 1022.39 1021.84 1021.30 1020.77 1019.97 1018.88 1017.66 1016.40 1014.88 1013.34 1012.33 1011.20 1010.54 1009.95 1009.36 1008.80
1025.08 1025.23 1025.70 1025.87 1026.03 1026.48 1026.57 1026.70 1026.60 1026.55 1026.56 1026.54 1026.41 1026.30 1026.23 1026.13 1025.86 1025.44 1025.02 1024.49 1024.37 1024.27 1024.10 1024.25 1024.19 1024.03 1023.72 1023.24 1022.65 1021.95 1021.23 1020.46 1019.40 1018.22 1017.04 1015.52 1014.30 1013.34 1012.24 1011.56 1010.94 1010.47 1009.93
1025.88 1026.04 1026.39 1026.67 1026.85 1027.14 1027.24 1027.21 1027.27 1027.28 1027.26 1027.20 1027.12 1026.98 1026.88 1026.83 1026.58 1026.23 1025.85 1025.39 1025.05 1024.93 1024.85 1024.83 1024.89 1024.66 1024.32 1023.98 1023.43 1022.60 1021.71 1020.78 1019.79 1018.72 1017.32 1016.15 1015.33 1014.35 1013.39 1012.50 1012.14 1011.57 1010.99
1026.83 1027.08 1027.34 1027.40 1027.61 1027.79 1027.96 1028.06 1028.03 1027.99 1028.04 1028.00 1027.90 1027.76 1027.65 1027.47 1027.28 1027.01 1026.59 1026.24 1025.95 1025.72 1025.55 1025.46 1025.41 1025.28 1024.95 1024.46 1023.91 1023.17 1022.30 1021.36 1020.41 1019.31 1018.14 1017.20 1016.39 1015.45 1014.57 1013.49 1012.79 1012.52 1012.16
Wind_Speed
16 14 15 13 13 12 12 10 8 9 8 8 7 7 7 7 7 7 7 8 9 8 8 8 8 7 5 6 5 4 4 3 10 10 9 9 7 10 12 10 9 9 8
14 16 14 13 12 11 9 8 8 7 7 7 6 6 6 11 12 11 10 10 9 9 9 9 9 8 7 6 4 6 5 5 6 17 10 10 10 10 11 12 11 10 10
14 16 14 10 8 8 8 6 6 6 5 5 5 8 11 10 11 10 10 10 9 8 8 8 9 9 9 6 6 8 7 6 7 9 12 9 10 10 12 10 11 13 10
15 12 10 8 7 7 6 7 7 7 10 10 10 10 10 10 11 10 10 9 9 9 9 9 10 9 9 7 7 6 7 8 9 9 11 11 11 13 12 12 11 9 9
13 12 9 7 7 8 9 10 9 10 10 10 10 10 8 10 9 9 9 9 9 9 9 8 10 14 14 13 7 8 9 8 9 10 11 11 12 10 10 10 10 10 10
10 9 8 10 11 9 9 8 9 9 8 10 8 8 10 9 12 16 13 6 7 8 9 9 9 10 12 19 21 21 16 11 13 9 10 10 14 11 10 9 9 9 8
11 11 11 10 11 10 9 9 7 7 7 7 6 7 8 8 14 16 18 6 7 8 9 8 8 9 12 14 18 20 16 15 13 11 12 13 13 13 11 12 11 9 9
11 12 11 11 11 9 9 8 8 6 5 6 7 7 6 8 16 17 19 8 7 9 9 8 9 13 14 18 16 14 13 13 12 9 11 14 14 14 12 10 12 10 9
11 12 11 11 9 8 9 7 6 5 8 7 5 8 8 8 17 17 14 7 6 8 9 12 12 14 21 22 13 14 15 13 13 17 18 20 21 22 18 7 7 5 4
11 11 10 9 9 10 7 6 5 7 8 6 7 8 12 9 15 19 16 4 8 8 11 12 16 18 22 22 13 12 14 15 16 18 17 15 14 13 11 7 6 6 3
11 11 8 7 11 10 11 7 8 9 7 7 8 9 7 8 12 19 18 8 8 7 10 10 10 22 21 20 16 11 13 15 15 11 10 9 9 8 5 6 7 5 2
10 9 11 11 10 8 9 8 10 8 8 8 7 6 7 9 13 16 21 17 13 6 8 9 11 21 18 15 14 19 19 15 9 9 9 9 10 8 5 5 7 5 2
9 11 11 10 9 9 10 10 8 8 8 7 7 7 8 8 8 17 17 17 12 7 5 9 13 15 16 14 20 21 19 12 11 9 10 11 11 9 5 3 4 4 4
8 10 8 10 10 10 8 8 7 7 7 6 6 6 7 7 8 9 9 9 10 5 6 8 11 11 12 14 16 15 12 11 10 10 11 11 10 10 9 4 1 2 3
7 6 9 7 8 8 9 7 6 5 4 5 6 5 5 7 8 12 6 9 9 8 7 8 12 14 14 14 13 13 12 13 13 12 11 12 9 10 9 9 7 2 3
5 5 6 7 7 6 5 4 6 3 4 5 6 6 6 8 12 17 13 15 17 16 8 10 10 10 11 12 13 13 12 16 13 12 12 12 12 8 8 9 8 6 5
6 6 8 9 8 6 5 3 3 3 5 7 5 3 8 12 17 18 15 13 15 11 10 9 10 10 11 11 11 11 13 13 14 12 11 13 12 11 8 7 8 7 7
5 9 7 7 7 5 3 2 2 2 3 5 5 3 2 6 11 13 14 9 10 11 10 10 10 11 10 11 11 11 13 13 13 13 13 14 13 13 9 10 9 8 7
4 4 5 5 5 5 4 3 2 3 4 4 5 7 5 4 4 9 11 8 8 9 9 10 11 11 10 10 10 10 12 12 13 13 13 14 14 13 11 9 8 9 8
6 13 7 4 4 4 3 3 3 3 4 4 5 6 6 3 4 4 4 5 6 6 7 10 10 10 10 10 11 11 11 12 13 13 13 14 14 13 13 10 10 8 8
5 6 9 6 5 5 4 5 5 5 5 4 4 6 9 8 7 5 5 5 4 7 8 9 10 10 10 11 11 11 12 11 12 12 12 13 13 13 13 11 9 8 7
5 5 5 5 5 6 5 5 5 5 5 5 4 5 9 7 8 8 6 6 5 6 6 8 9 10 10 10 11 11 12 13 13 13 13 12 12 13 12 12 11 9 8
6 6 6 5 5 6 5 5 5 5 5 5 5 5 6 7 6 8 9 6 6 7 6 8 9 10 10 10 10 10 11 11 12 12 12 12 12 12 12 11 11 11 10
5 6 6 5 6 5 5 5 5 7 6 5 6 6 5 7 8 6 9 8 6 6 7 7 8 12 10 11 11 11 11 12 11 12 14 12 12 14 9 11 12 14 11
8 8 8 6 5 5 6 5 5 5 6 5 5 5 5 5 7 8 7 8 7 7 9 7 7 12 13 15 17 19 20 22 18 19 11 14 15 17 13 9 10 11 14
8 8 6 6 6 6 5 5 5 5 5 5 5 5 6 6 6 8 6 8 8 8 9 8 7 14 15 13 17 20 21 22 20 21 13 12 13 13 12 12 12 9 12
Wind_Direction
89 86 82 74 67 64 62 56 53 50 44 38 41 42 43 41 25 24 7 16 23 10 2 352 337 328 321 317 303 288 290 292 297 296 296 290 287 284 285 285 274 274 269
90 85 77 72 65 63 61 55 55 57 48 44 38 37 31 43 45 38 25 13 6 355 335 342 325 319 311 305 303 288 267 265 281 295 303 298 289 284 279 281 277 275 264
89 85 79 75 74 75 75 69 71 69 61 44 42 38 65 52 42 30 18 4 348 332 330 317 310 314 310 297 306 309 312 315 303 292 299 297 290 288 285 274 282 277 260
85 85 84 82 84 82 75 59 51 45 38 39 49 63 64 53 37 18 5 346 330 326 313 307 301 304 314 345 331 332 339 318 308 299 296 298 297 294 290 290 293 292 296
89 85 85 82 75 64 54 57 52 44 38 38 53 50 66 52 28 8 350 334 319 313 309 319 338 325 15 18 354 331 317 308 303 300 292 291 288 299 293 297 290 294 290
89 90 81 73 71 66 58 56 52 44 36 47 40 57 50 45 16 6 353 322 314 330 334 328 325 358 4 345 329 318 307 298 293 293 290 286 290 290 291 289 291 295 296
84 81 80 75 73 66 57 51 55 44 34 44 35 72 64 38 15 0 353 340 323 324 324 322 350 0 356 334 330 325 320 312 285 279 278 277 281 285 291 288 285 279 277
76 78 73 70 69 64 57 39 38 47 44 37 32 50 75 35 18 1 354 332 343 341 327 349 21 0 351 341 331 323 323 314 305 298 289 288 285 283 277 277 279 281 274
76 76 74 72 69 64 61 42 20 40 39 29 27 55 49 33 9 4 351 327 340 319 6 19 8 355 346 340 335 327 326 324 320 309 298 287 277 276 265 273 272 261 282
64 81 79 73 73 69 67 43 41 52 41 23 24 56 50 24 3 359 352 334 355 357 13 9 5 353 344 341 341 332 332 325 322 323 325 327 322 313 301 260 284 271 247
73 70 73 73 66 49 56 39 27 55 42 22 31 27 43 38 3 355 355 2 7 354 12 0 352 345 341 334 335 340 323 312 319 318 315 319 318 316 336 334 322 311 211
78 78 69 63 59 52 49 41 36 41 34 33 19 18 9 9 10 351 346 349 358 350 3 355 347 341 334 336 348 343 339 343 338 336 335 335 329 318 335 327 331 349 360
94 86 78 68 63 65 57 45 39 32 36 27 20 13 3 358 350 343 333 334 345 346 351 341 344 344 351 357 358 2 359 352 346 349 343 337 331 330 311 329 341 356 24
70 90 84 80 65 48 64 55 41 31 28 26 21 11 357 344 337 339 335 333 347 354 343 2 2 359 5 3 8 3 359 353 347 345 341 336 335 350 346 325 299 354 6
75 71 98 89 86 74 61 51 53 38 34 35 26 5 355 343 329 326 341 22 21 21 356 10 14 9 9 4 1 357 353 355 353 346 344 341 340 359 357 348 359 349 41
62 71 93 90 74 71 84 73 53 52 7 17 25 32 1 351 358 22 22 31 24 6 32 19 15 10 5 359 354 351 353 353 347 340 345 344 348 345 351 359 4 9 21
62 67 99 91 82 81 71 56 47 345 304 284 314 19 11 352 25 31 20 27 21 17 32 22 18 10 2 360 354 354 349 346 341 347 348 343 347 340 2 21 7 9 28
83 70 91 109 114 117 115 117 74 19 357 349 328 253 139 15 359 27 20 31 36 32 32 18 13 12 5 358 352 352 347 347 352 348 349 346 351 350 6 23 19 12 11
76 103 104 115 125 139 139 134 124 60 21 10 353 10 198 220 358 14 16 41 34 29 25 26 16 11 4 359 351 352 350 349 350 346 348 348 351 353 7 23 23 17 13
54 67 75 88 120 119 109 106 104 82 61 33 21 9 352 4 34 358 9 22 26 25 21 30 19 13 5 2 355 353 354 352 352 349 346 347 348 2 2 7 16 22 25
71 63 65 51 54 52 59 60 53 53 47 50 33 24 12 29 19 14 14 15 8 20 42 30 22 15 10 4 360 356 353 351 349 344 345 344 344 1 4 4 7 15 26
85 82 85 84 71 58 47 57 63 55 48 37 23 23 21 33 24 17 6 14 23 28 56 38 29 19 10 5 0 358 355 348 346 342 341 339 347 2 5 7 8 9 18
81 70 55 60 77 78 55 51 45 46 50 40 30 32 28 22 16 20 13 9 27 28 55 43 33 23 13 7 3 360 355 347 335 336 334 332 357 351 7 10 11 10 13
85 93 89 75 71 75 73 68 56 41 43 45 35 28 40 30 15 9 17 10 15 38 37 51 39 29 16 12 3 358 355 350 341 339 337 345 353 354 356 14 14 15 14
55 54 52 45 58 63 52 48 62 61 38 33 45 34 24 39 26 9 16 13 20 27 39 47 36 28 19 12 7 1 354 353 351 346 339 359 356 359 351 14 19 17 17
57 51 47 44 44 42 52 54 42 44 50 36 27 28 29 23 26 16 18 19 23 25 28 28 47 35 18 9 6 1 357 354 352 347 355 1 1 0 352 5 16 23 22